N737BX SBFZ-SBRF

Flight info

Callsign N737BX
Flight time 0h 59m
Altitude 37000
Route UTMAR UZ70 UGTUN
Aircraft B738/M-SDE2E3FGHIJ2J3P2RWXY/LB1

Departure

Time 2026-04-28 11:58
Airport Pinto Martins International Airport (SBFZ)

Arrival

Time 2026-04-28 12:58
Airport Recife/Guararapes - Gilberto Freyre International Airport (SBRF)
Time Latitude Longitude Altitude Speed Heading
2026-04-28 11:32 -3.77874 -38.53844 81 ft 0 kts 218°
2026-04-28 11:49 -3.77865 -38.53837 86 ft 2 kts 218°
2026-04-28 11:49 -3.77852 -38.53827 86 ft 2 kts 217°
2026-04-28 11:50 -3.77839 -38.53817 86 ft 2 kts 225°
2026-04-28 11:50 -3.77843 -38.53805 86 ft 2 kts 314°
2026-04-28 11:50 -3.77846 -38.53803 86 ft 0 kts 313°
2026-04-28 11:54 -3.77845 -38.53804 86 ft 1 kts 313°
2026-04-28 11:54 -3.77829 -38.53822 86 ft 5 kts 311°
2026-04-28 11:54 -3.77794 -38.53862 83 ft 10 kts 310°
2026-04-28 11:54 -3.77746 -38.53919 83 ft 12 kts 310°
2026-04-28 11:55 -3.77703 -38.53995 82 ft 13 kts 286°
2026-04-28 11:55 -3.77678 -38.54088 82 ft 15 kts 284°
2026-04-28 11:55 -3.77653 -38.54190 85 ft 16 kts 285°
2026-04-28 11:55 -3.77627 -38.54284 83 ft 10 kts 286°
2026-04-28 11:56 -3.77602 -38.54353 83 ft 11 kts 307°
2026-04-28 11:56 -3.77529 -38.54385 85 ft 12 kts 336°
2026-04-28 11:56 -3.77472 -38.54451 81 ft 13 kts 296°
2026-04-28 11:56 -3.77427 -38.54507 83 ft 10 kts 348°
2026-04-28 11:57 -3.77358 -38.54496 82 ft 10 kts 13°
2026-04-28 11:57 -3.77312 -38.54471 88 ft 8 kts 77°
2026-04-28 11:57 -3.77317 -38.54435 84 ft 0 kts 103°
2026-04-28 11:58 -3.77347 -38.54318 84 ft 51 kts 105°
2026-04-28 11:58 -3.77509 -38.53718 83 ft 125 kts 105°
2026-04-28 11:58 -3.77785 -38.52693 220 ft 170 kts 105°
2026-04-28 11:58 -3.78099 -38.51557 943 ft 169 kts 105°
2026-04-28 11:59 -3.78407 -38.50464 1863 ft 159 kts 106°
2026-04-28 11:59 -3.78851 -38.49452 2552 ft 163 kts 135°
2026-04-28 11:59 -3.79845 -38.48892 3243 ft 166 kts 154°
2026-04-28 11:59 -3.80953 -38.48370 3680 ft 192 kts 153°
2026-04-28 12:00 -3.82249 -38.47749 3933 ft 220 kts 154°
2026-04-28 12:00 -3.83717 -38.47043 4134 ft 248 kts 153°
2026-04-28 12:00 -3.85304 -38.46290 4732 ft 259 kts 156°
2026-04-28 12:00 -3.86949 -38.45529 5609 ft 262 kts 153°
2026-04-28 12:01 -3.88603 -38.44694 6322 ft 271 kts 151°
2026-04-28 12:01 -3.90306 -38.43835 7043 ft 275 kts 152°
2026-04-28 12:01 -3.92033 -38.42982 7865 ft 279 kts 152°
2026-04-28 12:01 -3.93789 -38.42114 8588 ft 285 kts 152°
2026-04-28 12:02 -3.95602 -38.41300 9393 ft 288 kts 160°
2026-04-28 12:02 -3.97563 -38.40809 10139 ft 293 kts 167°
2026-04-28 12:02 -3.99621 -38.40424 10484 ft 313 kts 168°
2026-04-28 12:02 -4.01814 -38.40040 10651 ft 335 kts 168°
2026-04-28 12:03 -4.04171 -38.39624 10949 ft 350 kts 168°
2026-04-28 12:03 -4.06588 -38.39186 11531 ft 355 kts 168°
2026-04-28 12:03 -4.09025 -38.38735 12230 ft 357 kts 168°
2026-04-28 12:03 -4.11474 -38.38272 12965 ft 359 kts 168°
2026-04-28 12:04 -4.13941 -38.37800 13673 ft 362 kts 168°
2026-04-28 12:04 -4.16425 -38.37321 14321 ft 365 kts 168°
2026-04-28 12:04 -4.18897 -38.36843 14956 ft 368 kts 167°
2026-04-28 12:04 -4.21380 -38.36361 15617 ft 370 kts 167°
2026-04-28 12:05 -4.23919 -38.35868 16226 ft 373 kts 167°
2026-04-28 12:05 -4.26481 -38.35370 16811 ft 377 kts 167°
2026-04-28 12:05 -4.29071 -38.34867 17394 ft 381 kts 167°
2026-04-28 12:05 -4.31688 -38.34359 17974 ft 385 kts 166°
2026-04-28 12:06 -4.34328 -38.33846 18504 ft 388 kts 166°
2026-04-28 12:06 -4.36990 -38.33329 18975 ft 392 kts 166°
2026-04-28 12:06 -4.39646 -38.32813 19436 ft 395 kts 166°
2026-04-28 12:06 -4.42355 -38.32287 19898 ft 399 kts 166°
2026-04-28 12:07 -4.45091 -38.31756 20353 ft 402 kts 166°
2026-04-28 12:07 -4.47855 -38.31219 20801 ft 406 kts 166°
2026-04-28 12:07 -4.50639 -38.30678 21236 ft 409 kts 166°
2026-04-28 12:07 -4.53351 -38.29841 21628 ft 408 kts 150°
2026-04-28 12:08 -4.55679 -38.28242 22088 ft 406 kts 139°
2026-04-28 12:08 -4.57865 -38.26443 22541 ft 408 kts 138°
2026-04-28 12:08 -4.60053 -38.24607 22935 ft 412 kts 137°
2026-04-28 12:08 -4.62233 -38.22775 23340 ft 415 kts 138°
2026-04-28 12:09 -4.64456 -38.20914 23716 ft 418 kts 138°
2026-04-28 12:09 -4.66700 -38.19048 24052 ft 420 kts 138°
2026-04-28 12:09 -4.68959 -38.17179 24387 ft 422 kts 138°
2026-04-28 12:09 -4.71235 -38.15302 24725 ft 424 kts 138°
2026-04-28 12:10 -4.73521 -38.13420 25061 ft 426 kts 138°
2026-04-28 12:10 -4.75820 -38.11530 25396 ft 428 kts 138°
2026-04-28 12:10 -4.78128 -38.09633 25718 ft 430 kts 138°
2026-04-28 12:10 -4.80413 -38.07754 26045 ft 432 kts 138°
2026-04-28 12:11 -4.82737 -38.05843 26440 ft 432 kts 138°
2026-04-28 12:11 -4.85066 -38.03928 26768 ft 434 kts 138°
2026-04-28 12:11 -4.87404 -38.02005 27054 ft 437 kts 138°
2026-04-28 12:11 -4.89758 -38.00068 27337 ft 439 kts 138°
2026-04-28 12:12 -4.92125 -37.98121 27625 ft 441 kts 138°
2026-04-28 12:12 -4.94501 -37.96166 27904 ft 443 kts 138°
2026-04-28 12:12 -4.96890 -37.94200 28203 ft 445 kts 138°
2026-04-28 12:12 -4.99251 -37.92257 28487 ft 446 kts 138°
2026-04-28 12:13 -5.01657 -37.90277 28743 ft 448 kts 138°
2026-04-28 12:13 -5.04072 -37.88289 28978 ft 451 kts 138°
2026-04-28 12:13 -5.06503 -37.86288 29247 ft 452 kts 138°
2026-04-28 12:13 -5.08938 -37.84283 29504 ft 454 kts 138°
2026-04-28 12:14 -5.11386 -37.82268 29744 ft 456 kts 138°
2026-04-28 12:14 -5.13842 -37.80245 29981 ft 458 kts 139°
2026-04-28 12:14 -5.16303 -37.78218 30212 ft 459 kts 139°
2026-04-28 12:14 -5.18738 -37.76213 30472 ft 459 kts 138°
2026-04-28 12:15 -5.21203 -37.74183 30842 ft 458 kts 138°
2026-04-28 12:15 -5.23660 -37.72160 31189 ft 456 kts 138°
2026-04-28 12:15 -5.26104 -37.70146 31493 ft 455 kts 138°
2026-04-28 12:15 -5.28552 -37.68128 31761 ft 455 kts 138°
2026-04-28 12:16 -5.31002 -37.66110 32043 ft 455 kts 138°
2026-04-28 12:16 -5.33444 -37.64096 32375 ft 454 kts 138°
2026-04-28 12:16 -5.35882 -37.62087 32705 ft 453 kts 138°
2026-04-28 12:16 -5.38319 -37.60078 33021 ft 453 kts 137°
2026-04-28 12:17 -5.40719 -37.58099 33320 ft 453 kts 137°
2026-04-28 12:17 -5.43149 -37.56096 33647 ft 452 kts 137°
2026-04-28 12:17 -5.45576 -37.54094 33939 ft 452 kts 137°
2026-04-28 12:17 -5.48009 -37.52088 34178 ft 453 kts 137°
2026-04-28 12:18 -5.50442 -37.50081 34457 ft 452 kts 137°
2026-04-28 12:18 -5.52868 -37.48080 34770 ft 451 kts 137°
2026-04-28 12:18 -5.55286 -37.46086 35045 ft 450 kts 137°
2026-04-28 12:18 -5.57672 -37.44116 35274 ft 451 kts 137°
2026-04-28 12:19 -5.60093 -37.42118 35526 ft 450 kts 137°
2026-04-28 12:19 -5.62513 -37.40121 35801 ft 450 kts 137°
2026-04-28 12:19 -5.64926 -37.38129 36070 ft 449 kts 137°
2026-04-28 12:19 -5.67339 -37.36137 36326 ft 449 kts 137°
2026-04-28 12:20 -5.69750 -37.34146 36577 ft 449 kts 137°
2026-04-28 12:20 -5.72159 -37.32157 36831 ft 448 kts 137°
2026-04-28 12:20 -5.74565 -37.30170 37021 ft 449 kts 137°
2026-04-28 12:20 -5.76958 -37.28193 37001 ft 452 kts 137°
2026-04-28 12:21 -5.81807 -37.24192 36999 ft 448 kts 137°
2026-04-28 12:21 -5.86587 -37.20250 37016 ft 443 kts 137°
2026-04-28 12:22 -5.91338 -37.16325 37014 ft 442 kts 137°
2026-04-28 12:22 -5.96085 -37.12402 37015 ft 441 kts 137°
2026-04-28 12:23 -6.00795 -37.08510 37019 ft 442 kts 137°
2026-04-28 12:23 -6.05547 -37.04582 37011 ft 443 kts 137°
2026-04-28 12:24 -6.10309 -37.00644 37018 ft 444 kts 137°
2026-04-28 12:24 -6.15081 -36.96698 37011 ft 445 kts 137°
2026-04-28 12:25 -6.19835 -36.92766 37023 ft 446 kts 137°
2026-04-28 12:25 -6.24633 -36.88796 37019 ft 448 kts 137°
2026-04-28 12:26 -6.29445 -36.84814 37022 ft 449 kts 137°
2026-04-28 12:26 -6.34271 -36.80819 37025 ft 449 kts 137°
2026-04-28 12:27 -6.39066 -36.76848 37018 ft 450 kts 137°
2026-04-28 12:27 -6.43895 -36.72849 37025 ft 450 kts 137°
2026-04-28 12:28 -6.48718 -36.68853 37031 ft 449 kts 137°
2026-04-28 12:28 -6.53528 -36.64846 37024 ft 449 kts 137°
2026-04-28 12:29 -6.60697 -36.58856 37027 ft 449 kts 137°
2026-04-28 12:30 -6.65504 -36.54859 37029 ft 448 kts 137°
2026-04-28 12:30 -6.70313 -36.50876 37038 ft 447 kts 137°
2026-04-28 12:31 -6.75112 -36.46898 37036 ft 447 kts 137°
2026-04-28 12:31 -6.79913 -36.42913 37047 ft 447 kts 137°
2026-04-28 12:31 -6.82289 -36.40940 36707 ft 453 kts 137°
2026-04-28 12:32 -6.84718 -36.38922 36204 ft 452 kts 138°
2026-04-28 12:32 -6.87142 -36.36911 35586 ft 452 kts 138°
2026-04-28 12:32 -6.89566 -36.34898 34942 ft 452 kts 138°
2026-04-28 12:32 -6.91991 -36.32866 34237 ft 455 kts 138°
2026-04-28 12:33 -6.94423 -36.30814 33476 ft 456 kts 138°
2026-04-28 12:33 -6.96837 -36.28772 32979 ft 451 kts 138°
2026-04-28 12:33 -6.99229 -36.26747 32467 ft 447 kts 138°
2026-04-28 12:33 -7.01568 -36.24769 31976 ft 443 kts 138°
2026-04-28 12:34 -7.03921 -36.22780 31487 ft 439 kts 138°
2026-04-28 12:34 -7.06249 -36.20812 31004 ft 435 kts 138°
2026-04-28 12:34 -7.08559 -36.18859 30510 ft 432 kts 138°
2026-04-28 12:34 -7.10855 -36.16919 30014 ft 429 kts 138°
2026-04-28 12:35 -7.13130 -36.14996 29473 ft 426 kts 138°
2026-04-28 12:35 -7.15387 -36.13089 28961 ft 422 kts 137°
2026-04-28 12:35 -7.17622 -36.11200 28452 ft 418 kts 137°
2026-04-28 12:35 -7.19841 -36.09324 27952 ft 414 kts 137°
2026-04-28 12:36 -7.22043 -36.07462 27464 ft 410 kts 137°
2026-04-28 12:36 -7.24188 -36.05648 26995 ft 406 kts 137°
2026-04-28 12:36 -7.26334 -36.03833 26514 ft 403 kts 137°
2026-04-28 12:36 -7.28472 -36.02024 26039 ft 400 kts 137°
2026-04-28 12:37 -7.30597 -36.00226 25540 ft 397 kts 136°
2026-04-28 12:37 -7.32707 -35.98441 25057 ft 394 kts 136°
2026-04-28 12:37 -7.34799 -35.96670 24577 ft 392 kts 136°
2026-04-28 12:37 -7.36881 -35.94908 24085 ft 390 kts 136°
2026-04-28 12:38 -7.38950 -35.93157 23610 ft 388 kts 136°
2026-04-28 12:38 -7.40979 -35.91438 23066 ft 385 kts 136°
2026-04-28 12:38 -7.43018 -35.89711 22587 ft 381 kts 136°
2026-04-28 12:38 -7.45040 -35.87999 22104 ft 378 kts 136°
2026-04-28 12:39 -7.47046 -35.86299 21629 ft 375 kts 136°
2026-04-28 12:39 -7.49035 -35.84615 21171 ft 371 kts 136°
2026-04-28 12:39 -7.51003 -35.82947 20715 ft 368 kts 136°
2026-04-28 12:39 -7.52957 -35.81292 20274 ft 366 kts 136°
2026-04-28 12:40 -7.54902 -35.79643 19807 ft 364 kts 136°
2026-04-28 12:40 -7.56838 -35.78001 19347 ft 363 kts 136°
2026-04-28 12:40 -7.58739 -35.76389 18892 ft 362 kts 137°
2026-04-28 12:40 -7.60665 -35.74756 18429 ft 361 kts 137°
2026-04-28 12:41 -7.62579 -35.73133 17941 ft 359 kts 137°
2026-04-28 12:41 -7.64481 -35.71520 17485 ft 355 kts 137°
2026-04-28 12:41 -7.66364 -35.69923 17038 ft 352 kts 137°
2026-04-28 12:41 -7.68227 -35.68344 16625 ft 349 kts 137°
2026-04-28 12:42 -7.70073 -35.66775 16186 ft 346 kts 136°
2026-04-28 12:42 -7.71578 -35.64925 15762 ft 340 kts 116°
2026-04-28 12:42 -7.72366 -35.62739 15376 ft 336 kts 101°
2026-04-28 12:42 -7.72509 -35.60402 14951 ft 334 kts 87°
2026-04-28 12:43 -7.72332 -35.58080 14550 ft 332 kts 85°
2026-04-28 12:43 -7.72105 -35.55774 14130 ft 330 kts 85°
2026-04-28 12:43 -7.71876 -35.53480 13693 ft 328 kts 85°
2026-04-28 12:43 -7.71658 -35.51193 13246 ft 327 kts 86°
2026-04-28 12:44 -7.71451 -35.48922 12819 ft 324 kts 86°
2026-04-28 12:44 -7.71250 -35.46664 12401 ft 322 kts 86°
2026-04-28 12:44 -7.71058 -35.44459 12013 ft 319 kts 86°
2026-04-28 12:44 -7.70867 -35.42240 11613 ft 317 kts 86°
2026-04-28 12:45 -7.70677 -35.40040 11214 ft 314 kts 86°
2026-04-28 12:45 -7.70488 -35.37850 10829 ft 312 kts 86°
2026-04-28 12:45 -7.70300 -35.35680 10558 ft 307 kts 86°
2026-04-28 12:45 -7.70116 -35.33574 10404 ft 297 kts 86°
2026-04-28 12:46 -7.69938 -35.31533 10273 ft 288 kts 86°
2026-04-28 12:46 -7.69764 -35.29552 10149 ft 279 kts 86°
2026-04-28 12:46 -7.69597 -35.27633 10003 ft 272 kts 86°
2026-04-28 12:46 -7.69434 -35.25759 9688 ft 272 kts 86°
2026-04-28 12:47 -7.69270 -35.23866 9378 ft 270 kts 86°
2026-04-28 12:47 -7.69106 -35.21987 9090 ft 268 kts 86°
2026-04-28 12:47 -7.68943 -35.20119 8776 ft 267 kts 86°
2026-04-28 12:47 -7.68781 -35.18264 8489 ft 265 kts 86°
2026-04-28 12:48 -7.68621 -35.16421 8206 ft 264 kts 86°
2026-04-28 12:48 -7.68460 -35.14583 7914 ft 263 kts 86°
2026-04-28 12:48 -7.68300 -35.12754 7626 ft 262 kts 86°
2026-04-28 12:48 -7.68142 -35.10946 7347 ft 262 kts 86°
2026-04-28 12:49 -7.68113 -35.09113 7023 ft 264 kts 102°
2026-04-28 12:49 -7.68868 -35.07453 6725 ft 263 kts 128°
2026-04-28 12:49 -7.70238 -35.06257 6452 ft 262 kts 150°
2026-04-28 12:49 -7.71932 -35.05590 6177 ft 262 kts 159°
2026-04-28 12:50 -7.73669 -35.05039 5867 ft 261 kts 160°
2026-04-28 12:50 -7.75394 -35.04501 5592 ft 259 kts 160°
2026-04-28 12:50 -7.77089 -35.03970 5463 ft 251 kts 160°
2026-04-28 12:50 -7.78712 -35.03456 5339 ft 243 kts 160°
2026-04-28 12:51 -7.80300 -35.02949 5232 ft 236 kts 159°
2026-04-28 12:51 -7.81837 -35.02455 5133 ft 228 kts 159°
2026-04-28 12:51 -7.83321 -35.01977 5052 ft 221 kts 159°
2026-04-28 12:51 -7.84761 -35.01498 4954 ft 216 kts 158°
2026-04-28 12:52 -7.86187 -35.01038 4734 ft 215 kts 159°
2026-04-28 12:52 -7.87609 -35.00576 4496 ft 215 kts 159°
2026-04-28 12:52 -7.89033 -35.00110 4267 ft 216 kts 160°
2026-04-28 12:52 -7.90438 -34.99670 4154 ft 212 kts 159°
2026-04-28 12:53 -7.91869 -34.99211 3874 ft 218 kts 160°
2026-04-28 12:53 -7.93310 -34.98735 3608 ft 216 kts 159°
2026-04-28 12:53 -7.94714 -34.98268 3337 ft 209 kts 160°
2026-04-28 12:53 -7.96067 -34.97819 3071 ft 201 kts 160°
2026-04-28 12:54 -7.97371 -34.97386 2822 ft 194 kts 160°
2026-04-28 12:54 -7.98641 -34.96965 2580 ft 191 kts 160°
2026-04-28 12:54 -7.99882 -34.96553 2324 ft 184 kts 159°
2026-04-28 12:54 -8.01039 -34.96169 2109 ft 172 kts 160°
2026-04-28 12:55 -8.02159 -34.95796 1887 ft 167 kts 160°
2026-04-28 12:55 -8.03235 -34.95438 1693 ft 156 kts 161°
2026-04-28 12:55 -8.04259 -34.95098 1472 ft 155 kts 160°
2026-04-28 12:55 -8.05253 -34.94769 1257 ft 145 kts 161°
2026-04-28 12:56 -8.06215 -34.94451 1079 ft 143 kts 161°
2026-04-28 12:56 -8.07153 -34.94141 894 ft 141 kts 161°
2026-04-28 12:56 -8.08095 -34.93832 680 ft 144 kts 159°
2026-04-28 12:56 -8.09059 -34.93502 553 ft 146 kts 159°
2026-04-28 12:57 -8.10021 -34.93186 380 ft 145 kts 159°
2026-04-28 12:57 -8.10963 -34.92875 165 ft 145 kts 159°
2026-04-28 12:57 -8.11920 -34.92554 40 ft 139 kts 158°
2026-04-28 12:57 -8.12702 -34.92294 38 ft 90 kts 163°
2026-04-28 12:58 -8.13095 -34.92164 37 ft 29 kts 161°
2026-04-28 12:58 -8.13232 -34.92096 36 ft 21 kts 139°
2026-04-28 12:58 -8.13284 -34.92011 36 ft 10 kts 90°
2026-04-28 12:58 -8.13232 -34.91976 37 ft 10 kts 353°
2026-04-28 12:59 -8.13164 -34.91992 37 ft 10 kts 342°
2026-04-28 12:59 -8.13121 -34.92003 37 ft 5 kts
2026-04-28 12:59 -8.13095 -34.91989 37 ft 5 kts 56°
2026-04-28 12:59 -8.13083 -34.91959 37 ft 4 kts 72°
2026-04-28 13:00 -8.13078 -34.91942 37 ft 1 kts 71°
2026-04-28 13:00 -8.13077 -34.91941 37 ft 0 kts 71°